Regional Weather Roundup
Issued by NWS

Home | Current Version | Previous Version | Graphics & Text | Print | Product List | Glossary On
Versions: 1 2 3 4 5 6 7 8 9 10 11 12 13 14 15 16 17 18 19 20 21 22 23 24 25 26 27 28 29 30 31 32 33 34 35 36 37 38 39 40 41 42 43 44 45 46 47 48 49 50
000
ASUS45 KTFX 271004
RWRMT
MONTANA HOURLY WEATHER ROUNDUP
NATIONAL WEATHER SERVICE GREAT FALLS MT
304 AM MST THU NOV 27 2014

NOTE: "FAIR" INDICATES FEW OR NO CLOUDS BELOW 12000 FEET WITH NO
SIGNIFICANT WEATHER AND/OR OBSTRUCTIONS TO VISIBILITY.

* THESE STATIONS ARE NOT UNDER NWS QUALITY CONTROL. THEY DO NOT
   REPORT WEATHER SUCH AS PRECIPITATION OR FOG.

MTZ001>007-043-271100-
WEST OF THE DIVIDE
CITY           SKY/WX    TMP DP  RH WIND       PRES   REMARKS
KALISPELL      FOG       32  32 100 CALM      29.94F VSB 1 1/2
MISSOULA       FOG       30  30 100 CALM      30.05F VSB 1/2
BUTTE          CLOUDY    43  25  49 SW7       30.07F
MULLAN PASS    CLOUDY    36  34  92 SW14G29   29.97F WCI  27
* ESSEX        N/A       32  31  96 N/A        N/A
* LINCOLN      N/A       38  33  82 S3         N/A
* LOOKOUT PASS N/A       43  35  73 SE12G21    N/A
* POLSON       N/A       38  37  96 S3         N/A
* RONAN APT    CLOUDY    39  36  89 N/A        N/A
* SEELEY LAKE  N/A       32  31  96 N1         N/A
* THOMP F APT  MOCLDY    34  31  89 NE2G8      N/A
* YAAK HILL    N/A       34  32  92 E1         N/A
$$

MTZ008-052>055-271100-
SOUTHWEST MONTANA
CITY           SKY/WX    TMP DP  RH WIND       PRES   REMARKS
BOZEMAN        CLOUDY    34  30  85 VRB5      30.06R WCI  29
DILLON         MOCLDY    39  25  57 S8        30.10F WCI  33
* W YELLOWSTON CLOUDY    33  29  85 SW2G7      N/A
* ENNIS APT    CLOUDY    41  28  60 S11        N/A
* THREE FORKS  CLOUDY    25   3  38 N/A        N/A
* BOULDER HILL N/A       39  21  48 SW11G17    N/A   WCI  32
* MONIDA PASS  N/A       31  31 100 SE16       N/A   WCI  20
* RAYNOLDS PAS N/A       33  13  44 SE14G20    N/A   WCI  23
* WHITEHALL    N/A       48  24  39 W16G27     N/A
* WISE RIVER   N/A       33  27  79 SE3        N/A
$$

MTZ009>010-012-014-046-048-049-054-271100-
EAST SLOPES AND CENTRAL MONTANA
CITY           SKY/WX    TMP DP  RH WIND       PRES   REMARKS
CUT BANK       FOG       27  25  92 S10       29.85F VSB M1/4 WCI  18
GREAT FALLS    CLOUDY    39  32  76 SW16      29.90F WCI  30
HELENA         FOG       27  27 100 W5        30.01F VSB M1/4 WCI  21
MALMSTROM AFB  CLOUDY    36  36 100 SW12      29.92F WCI  28
* DEARBORN     N/A       49  31  50 S10G17     N/A
* EAST GLACIER N/A       38  34  86 W33G50     N/A   WCI  25
* MONARCH      N/A       41  23  49 SW17       N/A
* PENDROY      N/A       30  30 100 SE4G12     N/A
* SAINT MARY   N/A       40  34  79 SW12G26    N/A   WCI  33
* SWEET GRASS  N/A       25  25 100 S21G28     N/A   WCI  10
$$

MTZ011-013-016-021-035-040-045-047-050-051-271100-
NORTH CENTRAL MONTANA
CITY           SKY/WX    TMP DP  RH WIND       PRES   REMARKS
HAVRE          CLOUDY    30  28  92 CALM      29.94F
LEWISTOWN      CLOUDY    39  30  70 CALM      29.94F
* N BAR RANCH  CLOUDY    28  27  96 N6        29.97S WCI  21
* CHESTER      N/A       27  25  92 SE6G11     N/A   WCI  20
* DENTON       N/A       27  26  96 NE2        N/A
* JUDITH GAP   N/A       25  24  96 S4         N/A
* LOMA         N/A       29  27  92 E14        N/A   WCI  18
$$

MTZ017>020-022>027-061-062-271100-
NORTHEAST MONTANA
CITY           SKY/WX    TMP DP  RH WIND       PRES   REMARKS
GLASGOW        LGT SNOW  18  12  77 E17       30.11F WCI   3
GLENDIVE       CLOUDY    18  14  84 NE7       30.18F WCI   9
JORDAN         CLOUDY    27  25  92 SE8       30.08F WCI  19
SIDNEY         MOCLDY    16  10  77 CALM      30.25F
WOLF POINT     CLOUDY    16  10  77 E9        30.19F WCI   5
* BEAVER HILL  N/A       20  17  88 SE11       N/A   WCI   8
* CIRCLE       N/A       26  22  85 SE5        N/A   WCI  20
* LINDSAY DVD  N/A       18  16  92 E9         N/A   WCI   7
* NAVAJO       N/A        6   3  87 E6         N/A   WCI  -5
* SACO         N/A       19  16  88 NE14       N/A   WCI   5
$$

MTZ028>042-056>058-271100-
SOUTHCENTRAL AND SOUTHEAST MONTANA
CITY           SKY/WX    TMP DP  RH WIND       PRES   REMARKS
BAKER          CLOUDY    21  16  81 SE14      30.17F WCI   8
BILLINGS       FOG       27  25  92 N3        30.02F VSB M1/4
LIVINGSTON     CLOUDY    45  28  51 SW37G48   29.98R
MILES CITY     CLOUDY    27  23  85 SE14      30.12S WCI  16
* LAUREL APT   CLOUDY    30  23  75 N/A        N/A
* ALZADA       N/A       20  19  96 E11        N/A   WCI   8
* HYSHAM       N/A       28  25  89 SE3        N/A
* LAME DEER    N/A       25  24  96 S6         N/A   WCI  18
* REED POINT   N/A       25  25 100 E4G11      N/A
* ROSCOE HILL  N/A       47  14  26 SW22G35    N/A
$$

REGIONAL REPORTS...DAKOTAS
CITY           SKY/WX    TMP DP  RH WIND       PRES   REMARKS
WILLISTON      PTCLDY     1   0  95 CALM      30.26F
DICKINSON      CLOUDY    10   9  96 S15       30.22F WCI  -7
BEACH          CLOUDY    18  16  92 SE9       30.19F WCI   7
CROSBY         CLOUDY     9   7  91 S6        30.29F WCI  -1
BISMARCK       CLOUDY    -9 -13  82 NE7       30.43F WCI -24
GRAND FORKS    PTCLDY   -15 -20  77 SW3       30.54F
FARGO          PTCLDY   -11 -18  70 CALM      30.55F
BUFFALO SD     PTCLDY    19  16  88 SE13      30.13S WCI   6
RAPID CITY     CLOUDY    19  18  96 SE7       30.20F WCI  10
$$

REGIONAL REPORTS...WYOMING/IDAHO/WASHINGTON
CITY           SKY/WX    TMP DP  RH WIND       PRES   REMARKS
GILLETTE       PTCLDY    25  19  78 S20       30.07F WCI  11
SHERIDAN       FOG       23  21  92 CALM      30.06R VSB M1/4
CODY           MOCLDY    21  21 100 NE3       30.06S
YELLOWSTONE LA CLOUDY    32  27  82 VRB3      30.26S
SALMON         CLOUDY    30  28  92 S3        30.17R VSB M1/4
MULLAN PASS    CLOUDY    36  34  92 SW14G29   29.97S WCI  27
SAND POINT     FOG       36  36 100 CALM      29.92F
SPOKANE        CLOUDY    48  39  71 S16       29.89F
$$

REGIONAL REPORTS...ALBERTA
CITY           SKY/WX    TMP DP  RH WIND       PRES   REMARKS
CALGARY        LGT SNOW  27  25  92 SE12      29.83F VSB 1 3/4 WCI  16

$$



USA.gov is the U.S. government's official web portal to all federal, state and local government web resources and services.